Location: Kiltepe
(36.4752°N, 30.0120°E)
Time: 08:27:46
(UTC+00:00)

Cosmos 2123 Rocket - Pass Details

Date: 03 August 2024
Orbit: 961 x 991 km, 82.9° (Epoch: 13 September)

Event Time Altitude Azimuth Distance (km) Brightness Sun altitude
Rises 18:48:32 0° 358° (N) 3,710 7.7 -18.9°
Reaches altitude 10° 18:51:07 10° 2° (N) 2,759 6.9 -19.3°
Maximum altitude 18:57:20 56° 81° (E) 1,161 4.1 -20.2°
Enters shadow 18:59:42 37° 139° (SE) 1,500 4.4 -20.6°
